Change the Weather History Date:

Wednesday, May 22, 2013

  Actual Average Record
Temperature  
Mean Temperature 84 °F 80 °F  
Max Temperature 102 °F 97 °F 110 °F (2000)
Min Temperature 66 °F 63 °F 56 °F (1994)
Degree Days  
Heating Degree Days 0 0  
Month to date heating degree days 0 0  
Since 1 July heating degree days 1124 1180  
Cooling Degree Days 19 15  
Month to date cooling degree days 327 274  
Year to date cooling degree days 755 530  
Growing Degree Days 34 (Base 50)    
Moisture  
Dew Point 33 °F    
Average Humidity 20    
Maximum Humidity 35    
Minimum Humidity 4    
Precipitation  
Precipitation 0.00 in 0.00 in 0.04 in (1992)
Month to date precipitation 0.00 0.02  
Year to date precipitation 0.44 1.79  
Since 1 July precipitation 2.62 3.17  
Snow  
Snow 0.00 in - - ()
Month to date snowfall 0.0  
Year to date snowfall 0.0  
Since 1 July snowfall 0.0  
Snow Depth 0.00 in    
Sea Level Pressure  
Sea Level Pressure 29.61 in    
Wind  
Wind Speed 6 mph (NW)    
Max Wind Speed 24 mph    
Max Gust Speed 32 mph    
Visibility 10 miles    
Events      
T = Trace of Precipitation, MM = Missing Value Source: NWS Daily Summary

Daily Weather History Graph

Daily Weather History Graph

Search for Another Location

Airport or City:

Trip Planner

Search our weather history database for the weather conditions in past years. The results will help you decide how hot, cold, wet, or windy it might be!

Date:

Astronomy

May. 22, 2013 Rise Set
Actual Time 5:39 AM PDT 7:43 PM PDT
Civil Twilight 5:11 AM PDT 8:11 PM PDT
Nautical Twilight 4:37 AM PDT 8:45 PM PDT
Astronomical Twilight 4:00 AM PDT 9:22 PM PDT
Moon 5:16 PM PDT (5/22) 3:38 AM PDT (5/22)
Length of Visible Light 15h 00m
Length of Day
14h 04m
Waxing Gibbous, 92% of the Moon is Illuminated
May 22
Waxing Gibbous
May 24
Full
May 31
Last Quarter
Jun 8
New
Jun 16
First Quarter

Hourly Weather History & Observations

Time (PDT) Temp. Dew Point Humidity Pressure Visibility Wind Dir Wind Speed Gust Speed Precip Events Conditions
12:52 AM 82.0 °F 37.9 °F 21% 29.65 in 10.0 mi NNW 12.7 mph - N/A   Clear
1:52 AM 81.0 °F 37.9 °F 21% 29.63 in 10.0 mi NNW 12.7 mph - N/A   Clear
2:52 AM 79.0 °F 37.0 °F 22% 29.63 in 10.0 mi NNW 10.4 mph - N/A   Clear
3:52 AM 75.9 °F 37.0 °F 24% 29.62 in 10.0 mi Variable 3.5 mph - N/A   Clear
4:52 AM 73.0 °F 37.9 °F 28% 29.65 in 10.0 mi Calm Calm - N/A   Clear
5:52 AM 68.0 °F 39.0 °F 35% 29.63 in 10.0 mi Calm Calm - N/A   Clear
6:52 AM 77.0 °F 39.0 °F 25% 29.68 in 10.0 mi Variable 3.5 mph - N/A   Clear
7:52 AM 81.0 °F 39.0 °F 22% 29.68 in 10.0 mi SE 3.5 mph - N/A   Clear
8:52 AM 84.9 °F 37.9 °F 19% 29.66 in 3.0 mi ESE 6.9 mph - N/A   Haze
9:52 AM 88.0 °F 34.0 °F 15% 29.65 in 10.0 mi Calm Calm - N/A   Clear
10:52 AM 90.0 °F 36.0 °F 15% 29.65 in 10.0 mi Variable 3.5 mph - N/A   Clear
11:52 AM 93.9 °F 33.1 °F 12% 29.63 in 10.0 mi Calm Calm - N/A   Clear
12:52 PM 97.0 °F 30.9 °F 10% 29.60 in 10.0 mi SE 6.9 mph - N/A   Clear
1:52 PM 99.0 °F 28.9 °F 8% 29.58 in 10.0 mi South 5.8 mph - N/A   Clear
2:52 PM 99.0 °F 24.1 °F 7% 29.56 in 10.0 mi WNW 4.6 mph - N/A   Clear
3:52 PM 100.9 °F 30.0 °F 8% 29.54 in 10.0 mi WNW 12.7 mph - N/A   Clear
4:52 PM 99.0 °F 8.1 °F 4% 29.53 in 10.0 mi NW 23.0 mph 32.2 mph N/A   Clear
5:52 PM 95.0 °F 1.9 °F 4% 29.54 in 10.0 mi WNW 20.7 mph 31.1 mph N/A   Clear
6:52 PM 91.9 °F 5.0 °F 4% 29.55 in 10.0 mi WNW 16.1 mph 25.3 mph N/A   Clear
7:52 PM 86.0 °F 39.0 °F 19% 29.56 in 10.0 mi NW 17.3 mph 27.6 mph N/A   Clear
8:52 PM 82.0 °F 41.0 °F 23% 29.57 in 8.0 mi NW 24.2 mph 35.7 mph N/A   Clear
9:52 PM 78.1 °F 43.0 °F 29% 29.62 in 10.0 mi West 12.7 mph 26.5 mph N/A   Clear
10:52 PM 75.0 °F 46.0 °F 36% 29.62 in 10.0 mi North 15.0 mph 23.0 mph N/A   Clear
11:52 PM 72.0 °F 46.9 °F 41% 29.64 in 10.0 mi NNW 8.1 mph - N/A   Clear